Regional Weather Roundup
Issued by NWS

Home | Current Version | Previous Version | Text Only | Print | Product List | Glossary Off
Versions: 1 2 3 4 5 6 7 8 9 10 11 12 13 14 15 16 17 18 19 20 21 22 23 24 25 26 27

000
ASUS45 KCYS 200110
RWRWY

WYOMING REGIONAL WEATHER ROUNDUP
NATIONAL WEATHER SERVICE CHEYENNE WY
600 PM MST SUN FEB 19 2017

NOTE:  "FAIR" INDICATES FEW OR NO CLOUDS BELOW 12,000 FEET
WITH NO SIGNIFICANT WEATHER AND/OR OBSTRUCTIONS TO VISIBILITY.

WYZ001-200200-
YELLOWSTONE NATIONAL PARK

CITY           SKY/WX    TMP DP  RH WIND       PRES   REMARKS
LK YELLOWSTONE   N/A     27  23  85 VRB6      29.70R WCI  20
W YELLOWSTONE  NOT AVBL

$$
WYZ002>013-054>058-071-098>099-200200-
NORTHERN WYOMING

CITY           SKY/WX    TMP DP  RH WIND       PRES   REMARKS
JACKSON        SNOW      30  28  93 S12       29.77R VSB 1/2 WCI  21
CODY           FAIR      45  22  40 W17G25    29.62R
GREYBULL         N/A     42  34  73 N5        29.56R
WORLAND        MOCLDY    39  35  86 NE3       29.56R
SHERIDAN       MOCLDY    42  33  70 VRB3      29.55R
BUFFALO        MOCLDY    50  27  40 N12       29.55R
GILLETTE       FAIR      54  32  43 SW16      29.51R
HULETT         CLOUDY    55  32  41 SW10      29.53R
NEWCASTLE      FAIR      52  32  46 SE12G18   29.57S

$$
WYZ014>020-022>026-101>103-200200-
CENTRAL WYOMING

CITY           SKY/WX    TMP DP  RH WIND       PRES   REMARKS
BIG PINEY      FAIR      32  25  75 SW9       29.75F WCI  24
PINEDALE       CLOUDY    30  30 100 CALM      29.75S
DUBOIS         FAIR      32  23  69 W6        29.67S WCI  26
LANDER         FAIR      46  19  34 W18       29.62R
RIVERTON       MOCLDY    41  28  60 NW17      29.64R
CASPER         MOCLDY    44  33  65 SW15G31   29.62R
DOUGLAS        CLOUDY    48  33  56 S5        29.63R

$$
WYZ021-027>030-104>119-200200-
SOUTHERN WYOMING

CITY           SKY/WX    TMP DP  RH WIND       PRES   REMARKS
EVANSTON       FAIR      31  26  82 S7        29.81R WCI  24
KEMMERER         N/A     28  25  86 SW12      29.78R WCI  18
FORT BRIDGER   FAIR      33  32  96 W10       29.83R WCI  25
ROCK SPRINGS   MOCLDY    35  31  85 W13       29.78R WCI  26
DIXON          LGT SNOW  33  32  96 W3        29.82R VSB 1
RAWLINS        LGT RAIN  35  32  88 W16       29.75R WCI  25
SARATOGA       LGT SNOW  32  32 100 W14       29.77R WCI  22
LARAMIE        CLOUDY    36  34  92 E7        29.70R WCI  30
CHEYENNE       CLOUDY    45  34  65 NW16G26   29.65R
TORRINGTON     CLOUDY    56  28  34 NE5       29.59R
PINE BLUFFS    FAIR      50  27  40 N3        29.59R

$$




USA.gov is the U.S. government's official web portal to all federal, state and local government web resources and services.